User: anonymous
Location: Radomski Observatory
(40.2854°N, 79.5145°W)
Time: 09:51:02
(UTC-04:00)
Language:

Uosat F - Orbit

View from above orbital plane
View from above orbital plane
View from above satellite
View from above satellite

Ground track
Ground track

The orbit data is extracted from the following two-line orbital elements,

1 21575U 91050B   14271.78414619  .00000218  00000-0  83069-4 0  1320
2 21575 098.7115 249.7570 0007458 023.4862 096.9266 14.40431041218399
Epoch (UTC): 28 September 2014 18:49:10
Eccentricity: 0.0007458
inclination: 98.7115°
perigee height: 752 km
apogee height: 762 km
right ascension of ascending node: 249.7570°
argument of perigee: 23.4862°
revolutions per day: 14.40431041
mean anomaly at epoch: 96.9266°
orbit number at epoch: 21839

The dashed part of the orbit path shows where the satellite is in the earth's shadow,  

DLR